Regional Weather Roundup
Issued by NWS

Home | Current Version | Previous Version | Text Only | Print | Product List | Glossary Off
Versions: 1 2 3 4 5 6 7 8 9 10 11 12 13 14 15 16 17 18 19 20 21 22 23 24 25 26 27 28 29 30 31 32 33 34 35 36 37 38 39 40 41 42 43 44 45 46 47 48 49 50

287
ASUS43 KBIS 110402
RWRND

NORTH DAKOTA REGIONAL WEATHER ROUNDUP
NATIONAL WEATHER SERVICE BISMARCK ND
1000 PM CST SAT DEC 10 2016

NOTE: "FAIR" INDICATES FEW OR NO CLOUDS BELOW 12,000 FEET WITH NO
SIGNIFICANT WEATHER AND/OR OBSTRUCTIONS TO VISIBILITY.


NDZ001>003-009>011-017-110500-
NORTHWEST NORTH DAKOTA

CITY           SKY/WX    TMP DP  RH WIND       PRES   REMARKS
WILLISTON      LGT SNOW   2  -4  76 SE12      29.97S VSB 1   WCI -15
MINOT          FLURRIES  -3  -8  79 E10       30.03R WCI -20
MINOT AFB      CLOUDY    -4  -9  81 E13       30.04R WCI -24
$$

NDZ018>021-031>035-040>046-110500-
SOUTHWEST NORTH DAKOTA

CITY           SKY/WX    TMP DP  RH WIND       PRES   REMARKS
BISMARCK       LGT SNOW   0  -4  83 E9        29.99F FOG     WCI -15
DICKINSON      LGT SNOW  -2  -7  79 SE12      29.82F WCI -20
GARRISON         N/A     -2  -6  83 E14       29.97F WCI -21
HETTINGER ARPT LGT SNOW  -1  -5  82 SE7       29.84F VSB 3/4 WCI -14
$$

NDZ004>008-012>016-024-026-027-054-110500-
NORTHEAST NORTH DAKOTA

CITY           SKY/WX    TMP DP  RH WIND       PRES   REMARKS
GRAND FORKS    CLOUDY    -9 -13  83 NE6       30.22F WCI -22
GRND FRKS AFB  CLEAR    -13 -18  76 NE6       30.20F WCI -27
DEVILS LAKE    CLOUDY    -6 -10  83 E14       30.11F WCI -26
$$

NDZ022-023-025-028>030-036>039-047>053-110500-
SOUTHEAST NORTH DAKOTA

CITY           SKY/WX    TMP DP  RH WIND       PRES   REMARKS
FARGO          FLURRIES   4  -3  73 NE8       30.17F WCI  -9
JAMESTOWN      LGT SNOW  -1  -6  79 E9        30.05F WCI -16
$$





USA.gov is the U.S. government's official web portal to all federal, state and local government web resources and services.